{"data":{"norad_id":66640,"intl_designator":"2025-271Z","name":"STARLINK-35921","alt_names":[],"object_type":"PAYLOAD","status":"ACTIVE","operator":null,"country":"US","launch_date":"2025-11-23","launch_site_code":"AFWTR","launch_vehicle":null,"mission":null,"orbit_class":"UNKNOWN","rcs_meters":null,"size_class":null,"mass_kg":null,"dimensions":null,"purposes":["comms"],"wikipedia_slug":null,"has_3d_model":false,"image_url":null,"decayed_at":null,"tle_current":{"epoch":"2026-09-20T10:20:54.511872Z","epoch_age_seconds":92404,"freshness":"FRESH","line1":"1 66640U 25271Z   26263.43118648  .00022335  00000+0  66988-3 0  9997","line2":"2 66640  53.1600 313.8790 0000992  77.0094 283.1019 15.34415185 47403","mean_motion":15.34415185,"eccentricity":9.92e-5,"inclination_deg":53.16,"raan_deg":313.879,"arg_perigee_deg":77.0094,"mean_anomaly_deg":283.1019,"bstar":0.00066988,"rev_number":4740,"period_min":93.846829337784,"perigee_km":461.97950068455,"apogee_km":463.33671443389,"semimajor_km":6840.7951075592,"source":"CELESTRAK","updated_at":"2026-09-21T09:00:35.986828Z"}}}